Aérodrome :
LOGIN :

S'inscrire | Disclaimer

   EN    FR    IT 

 










Légende :    VFR   VFR Marginal   IFR   IFR Intensif   IFR Très Intensif
Visi : 
Plafond : 
>= 8 km
>= 3000ft
5 à 8 km
1000 à 3000 ft
1500m à 5 km
500 à 1000 ft
800 à 1500m
200 à 500 ft
< 800m
< 200 ft
Symboles :   Orages  Brouillard  Fortes neiges  Fortes précipitations  Vent > 20 kt
SIGMETs :   Divers  Orages  Givrage  Turbulence  Onde Orograph.  Cendres Volcan.







- Altitude de l'aérodrome : 28 ft
- Code IATA : SOZ
- Voir les cartes d'approche


LFKS - Solenzara

DERNIER METAR :
  • 231330Z AUTO 11006KT 070V150 9999 FEW036 20/14 Q1017

METARs EXPIRÉS :
  • 231300Z AUTO 12006KT 080V160 9999 FEW054 SCT210 20/15 Q1017
  • 231230Z AUTO 12007KT 080V150 CAVOK 21/15 Q1017
  • 231200Z AUTO 14007KT 090V170 9999 FEW033 20/16 Q1017
  • 231130Z AUTO 13008KT 100V170 CAVOK 21/16 Q1017
  • 231100Z AUTO 13008KT CAVOK 20/14 Q1017

TAF TAF LFKS
Valide du 23 à 09h jusqu'au 24 à 09h UTC


230800Z 2309/2409 12005KT 9999 BKN020
Pas de NOTAMs connus pour ce terrain.



MET'MAP, la Météo Aéronautique d'un coup d'oeil ! - Copyright ORBIFLY Décembre 2007 - Disclaimer

ORBIFLY MET'MAP TEAM :

Programmation & Développement : Alexandra Zaïnal
Conception & Développement : Baudouin d'Aumeries
Co-Programmation & Développement : Marc-Olivier Méhu
Soutien technique & logistique : Manuel Goepfert

Contact : metmap@orbifly.com




SOURCES & CREDITS :

   NOAA